N5CSU Weather Reports


time (UTC)temp
C
wind
direction
speed
KPH
gust
KPH
rain 1hr
cm
rain 24hr
cm
rain mn
cm
humidity
%
barometer
mb
20260901092728 27 201 0.0 0.0 0.00 0.00 0.00 66 1016.6
20260901092224 27 201 0.0 0.0 0.00 0.00 0.00 66 1016.6
20260901091719 27 201 0.0 0.0 0.00 0.00 0.00 66 1016.5
20260901091214 27 199 0.0 0.0 0.00 0.00 0.00 66 1016.6
20260901090709 27 203 0.0 0.0 0.00 0.00 0.00 65 1016.6
20260901090204 27 204 0.0 0.0 0.00 0.00 0.00 65 1016.5
20260901085700 27 205 0.0 0.0 0.00 0.00 0.00 65 1016.4
20260901085155 28 199 0.0 0.0 0.00 0.00 0.00 65 1016.3
20260901084651 28 197 0.0 0.0 0.00 0.00 0.00 64 1016.1
20260901084147 28 193 0.0 0.0 0.00 0.00 0.00 64 1016.4
20260901083641 28 193 0.0 0.0 0.00 0.00 0.00 64 1016.3
20260901083140 28 202 0.0 0.0 0.00 0.00 0.00 63 1016.3
20260901082639 28 203 0.0 0.0 0.00 0.00 0.00 63 1016.1
20260901082135 28 200 0.0 0.0 0.00 0.00 0.00 62 1016.3
20260901081630 28 193 0.0 0.0 0.00 0.00 0.00 62 1016.5
20260901081125 28 201 0.0 0.0 0.00 0.00 0.00 61 1016.3
20260901080619 28 198 0.0 0.0 0.00 0.00 0.00 61 1016.4
20260901080119 29 197 0.0 0.0 0.00 0.00 0.00 60 1016.5
20260901075615 29 197 0.0 0.0 0.00 0.00 0.00 60 1016.1
20260901075114 29 203 0.0 0.0 0.00 0.00 0.00 60 1016.4
20260901074614 29 202 0.0 0.0 0.00 0.00 0.00 59 1016.4
20260901074113 29 198 0.0 0.0 0.00 0.00 0.00 59 1016.3
20260901073610 30 196 0.0 0.0 0.00 0.00 0.00 58 1016.3
20260901073105 30 201 0.0 0.0 0.00 0.00 0.00 58 1016.4
20260901072601 30 202 0.0 0.0 0.00 0.00 0.00 58 1016.3
20260901072055 30 208 0.0 0.0 0.00 0.00 0.00 58 1016.1
20260901071550 30 210 0.0 0.0 0.00 0.00 0.00 58 1016.1
20260901071049 30 210 0.0 0.0 0.00 0.00 0.00 57 1016.1
20260901070543 30 205 0.0 0.0 0.00 0.00 0.00 57 1016.1
20260901070039 30 199 0.0 0.0 0.00 0.00 0.00 56 1015.9
20260901065533 30 195 0.0 0.0 0.00 0.00 0.00 56 1016.0
20260901065028 30 196 0.0 0.0 0.00 0.00 0.00 55 1015.9
20260901064525 30 204 0.0 0.0 0.00 0.00 0.00 55 1016.1
20260901064021 30 191 0.0 0.0 0.00 0.00 0.00 55 1016.0
20260901063518 30 196 0.0 0.0 0.00 0.00 0.00 54 1015.7
20260901063013 30 198 0.0 0.0 0.00 0.00 0.00 54 1015.9
20260901062508 30 193 0.0 0.0 0.00 0.00 0.00 55 1015.9
20260901061959 31 192 0.0 0.0 0.00 0.00 0.00 54 1015.9
20260901061455 31 193 0.0 0.0 0.00 0.00 0.00 53 1015.8
20260901060954 30 191 0.0 0.0 0.00 0.00 0.00 53 1015.5
20260901060444 30 198 0.0 0.0 0.00 0.00 0.00 54 1015.6
20260901055944 30 200 0.0 0.0 0.00 0.00 0.00 53 1015.8
20260901055441 30 197 0.0 0.0 0.00 0.00 0.00 53 1015.6
20260901054937 30 214 0.0 1.6 0.00 0.00 0.00 53 1015.4
20260901054434 30 205 0.0 0.0 0.00 0.00 0.00 52 1015.4
20260901053930 31 191 0.0 0.0 0.00 0.00 0.00 51 1015.3
20260901053425 31 189 0.0 0.0 0.00 0.00 0.00 51 1015.2
20260901052920 31 188 0.0 0.0 0.00 0.00 0.00 51 1015.2
20260901052415 31 193 0.0 0.0 0.00 0.00 0.00 50 1015.4
20260901051913 31 187 0.0 0.0 0.00 0.00 0.00 50 1015.2
20260901051409 31 191 0.0 0.0 0.00 0.00 0.00 50 1015.3
20260901050904 31 197 0.0 0.0 0.00 0.00 0.00 51 1015.1
20260901050400 31 193 0.0 0.0 0.00 0.00 0.00 49 1015.0
20260901045859 31 196 0.0 0.0 0.00 0.00 0.00 50 1015.4
20260901045354 30 192 0.0 0.0 0.00 0.00 0.00 51 1015.0
20260901044849 30 198 0.0 0.0 0.00 0.00 0.00 54 1014.9
20260901044346 29 205 0.0 0.0 0.00 0.00 0.00 53 1014.7
20260901043842 28 195 0.0 0.0 0.00 0.00 0.00 55 1014.9
20260901043338 28 196 0.0 0.0 0.00 0.00 0.00 56 1015.1
20260901042836 28 204 0.0 0.0 0.00 0.00 0.00 56 1014.8
20260901042331 28 200 0.0 0.0 0.00 0.00 0.00 56 1014.9
20260901041826 28 201 0.0 0.0 0.00 0.00 0.00 56 1014.9
20260901041321 28 201 0.0 0.0 0.00 0.00 0.00 55 1014.9
20260901040816 28 200 0.0 0.0 0.00 0.00 0.00 55 1014.9
20260901040315 29 200 0.0 0.0 0.00 0.00 0.00 54 1014.8
20260901035814 29 202 0.0 0.0 0.00 0.00 0.00 54 1014.9
20260901035313 29 203 0.0 0.0 0.00 0.00 0.00 53 1014.8
20260901034812 30 202 0.0 0.0 0.00 0.00 0.00 53 1014.9
20260901034307 30 203 0.0 0.0 0.00 0.00 0.00 52 1014.8
20260901033802 30 205 0.0 0.0 0.00 0.00 0.00 52 1014.8
20260901033301 30 202 0.0 0.0 0.00 0.00 0.00 51 1014.8
20260901032800 30 197 0.0 0.0 0.00 0.00 0.00 50 1014.8
20260901032300 30 197 0.0 0.0 0.00 0.00 0.00 49 1014.8
20260901031755 31 201 0.0 0.0 0.00 0.00 0.00 48 1014.8
20260901031251 31 201 0.0 0.0 0.00 0.00 0.00 48 1014.9
20260901030751 31 201 0.0 0.0 0.00 0.00 0.00 47 1014.8
20260901030246 31 201 0.0 0.0 0.00 0.00 0.00 46 1014.6
20260901025745 31 201 0.0 0.0 0.00 0.00 0.00 47 1014.6
20260901025240 31 201 0.0 0.0 0.00 0.00 0.00 46 1014.4
20260901024735 32 202 0.0 0.0 0.00 0.00 0.00 45 1014.5
20260901024234 32 203 0.0 0.0 0.00 0.00 0.00 45 1014.4
20260901023732 32 199 0.0 0.0 0.00 0.00 0.00 45 1014.3
20260901023227 32 194 0.0 0.0 0.00 0.00 0.00 45 1014.3
20260901022723 32 199 0.0 0.0 0.00 0.00 0.00 44 1014.3
20260901022218 32 199 0.0 0.0 0.00 0.00 0.00 44 1014.1
20260901021713 32 200 0.0 0.0 0.00 0.00 0.00 44 1014.0
20260901021209 32 194 0.0 0.0 0.00 0.00 0.00 44 1013.9
20260901020704 32 196 0.0 0.0 0.00 0.00 0.00 43 1014.0
20260901020200 32 204 0.0 0.0 0.00 0.00 0.00 43 1013.9
20260901015655 32 200 0.0 0.0 0.00 0.00 0.00 43 1013.9
20260901015154 32 158 0.0 0.0 0.00 0.00 0.00 42 1014.0
20260901014649 33 203 0.0 0.0 0.00 0.00 0.00 42 1014.0
20260901014145 33 202 0.0 0.0 0.00 0.00 0.00 42 1013.9
20260901013640 33 205 0.0 0.0 0.00 0.00 0.00 42 1013.9
20260901013136 33 206 0.0 0.0 0.00 0.00 0.00 41 1013.9
20260901012631 33 203 0.0 0.0 0.00 0.00 0.00 41 1013.9
20260901012126 33 203 0.0 0.0 0.00 0.00 0.00 40 1013.8
20260901011622 33 203 0.0 0.0 0.00 0.00 0.00 40 1013.6
20260901011120 33 207 0.0 0.0 0.00 0.00 0.00 39 1013.6
20260901010615 34 206 0.0 0.0 0.00 0.00 0.00 39 1013.7
20260901010109 34 216 0.0 0.0 0.00 0.00 0.00 38 1013.7
20260901005604 34 225 0.0 0.0 0.00 0.00 0.00 38 1013.5
20260901005059 35 209 0.0 0.0 0.00 0.00 0.00 37 1013.5
20260901004558 35 195 0.0 0.0 0.00 0.00 0.00 37 1013.6
20260901004054 35 197 0.0 0.0 0.00 0.00 0.00 37 1013.6
20260901003549 35 197 0.0 0.0 0.00 0.00 0.00 36 1013.6
20260901003047 35 191 0.0 0.0 0.00 0.00 0.00 36 1013.6
20260901002546 35 203 0.0 0.0 0.00 0.00 0.00 35 1013.5
20260901002042 35 189 0.0 0.0 0.00 0.00 0.00 35 1013.4
20260901001537 35 197 0.0 0.0 0.00 0.00 0.00 34 1013.5
20260901001032 36 197 0.0 0.0 0.00 0.00 0.00 34 1013.5
20260901000531 36 202 0.0 0.0 0.00 0.00 0.00 34 1013.5
20260901000028 36 149 0.0 0.0 0.00 0.00 0.00 34 1013.6
20260831235521 36 192 0.0 0.0 0.00 0.00 0.00 34 1013.6
20260831235017 36 208 0.0 0.0 0.00 0.00 0.00 34 1013.4
20260831234511 36 196 0.0 0.0 0.00 0.00 0.00 34 1013.6
20260831234007 36 195 0.0 1.6 0.00 0.00 0.00 33 1013.6
20260831233501 36 205 0.0 1.6 0.00 0.00 0.00 33 1013.5
20260831232957 36 192 1.6 1.6 0.00 0.00 0.00 32 1013.4
20260831232452 36 197 0.0 0.0 0.00 0.00 0.00 33 1013.4
20260831231948 36 196 0.0 0.0 0.00 0.00 0.00 33 1013.5
20260831231439 37 253 0.0 1.6 0.00 0.00 0.00 33 1013.3
20260831230935 37 193 0.0 0.0 0.00 0.00 0.00 34 1013.5
20260831230435 37 193 0.0 0.0 0.00 0.00 0.00 33 1013.5
20260831225928 37 204 0.0 0.0 0.00 0.00 0.00 32 1013.5
20260831225425 37 200 0.0 0.0 0.00 0.00 0.00 33 1013.6
20260831224919 37 172 0.0 0.0 0.00 0.00 0.00 35 1013.5
20260831224414 37 135 0.0 0.0 0.00 0.00 0.00 33 1013.8
20260831223909 37 191 0.0 0.0 0.00 0.00 0.00 33 1013.8
20260831223404 37 186 0.0 0.0 0.00 0.00 0.00 34 1013.7
20260831222901 37 200 0.0 0.0 0.00 0.00 0.00 34 1013.7
20260831222356 38 204 0.0 0.0 0.00 0.00 0.00 34 1013.8
20260831221851 38 193 0.0 0.0 0.00 0.00 0.00 33 1013.8
20260831221347 37 194 0.0 0.0 0.00 0.00 0.00 34 1013.8
20260831220842 37 202 0.0 0.0 0.00 0.00 0.00 34 1013.9
20260831220337 37 223 0.0 0.0 0.00 0.00 0.00 34 1014.0
20260831215832 37 187 1.6 1.6 0.00 0.00 0.00 34 1014.1
20260831215328 37 189 0.0 0.0 0.00 0.00 0.00 36 1014.0
20260831214825 36 195 0.0 0.0 0.00 0.00 0.00 36 1014.0
20260831214322 36 218 0.0 0.0 0.00 0.00 0.00 36 1014.1
20260831213816 36 198 0.0 0.0 0.00 0.00 0.00 36 1014.4
20260831213307 36 209 0.0 0.0 0.00 0.00 0.00 37 1014.3
20260831212802 37 271 0.0 0.0 0.00 0.00 0.00 35 1014.3
20260831212259 37 179 1.6 1.6 0.00 0.00 0.00 34 1014.3
20260831211757 38 188 1.6 3.2 0.00 0.00 0.00 33 1014.4
20260831211252 38 221 0.0 0.0 0.00 0.00 0.00 33 1014.5
20260831210747 37 186 1.6 1.6 0.00 0.00 0.00 33 1014.4
20260831210243 38 209 1.6 3.2 0.00 0.00 0.00 33 1014.5
20260831205742 38 179 3.2 3.2 0.00 0.00 0.00 32 1014.5
20260831205239 38 190 1.6 1.6 0.00 0.00 0.00 32 1014.5
20260831204738 38 201 0.0 0.0 0.00 0.00 0.00 33 1014.7
20260831204237 38 207 0.0 1.6 0.00 0.00 0.00 33 1014.8
20260831203737 38 229 0.0 1.6 0.00 0.00 0.00 31 1014.7
20260831203232 37 204 0.0 1.6 0.00 0.00 0.00 32 1014.9
20260831202730 37 232 0.0 1.6 0.00 0.00 0.00 32 1015.0
20260831202225 37 199 1.6 1.6 0.00 0.00 0.00 33 1015.0
20260831201724 37 199 0.0 0.0 0.00 0.00 0.00 34 1015.1
20260831201218 37 189 1.6 1.6 0.00 0.00 0.00 34 1015.2
20260831200714 37 187 1.6 1.6 0.00 0.00 0.00 33 1015.2
20260831200208 37 193 1.6 1.6 0.00 0.00 0.00 33 1015.3
20260831195658 37 186 0.0 0.0 0.00 0.00 0.00 31 1015.4
20260831195154 38 215 0.0 1.6 0.00 0.00 0.00 30 1015.5
20260831194648 38 180 1.6 1.6 0.00 0.00 0.00 32 1015.5
20260831194144 37 223 0.0 0.0 0.00 0.00 0.00 33 1015.6
20260831193638 37 207 1.6 3.2 0.00 0.00 0.00 33 1015.7
20260831193134 36 177 0.0 0.0 0.00 0.00 0.00 35 1015.9
20260831192628 37 190 0.0 0.0 0.00 0.00 0.00 33 1015.9
20260831192124 36 165 3.2 3.2 0.00 0.00 0.00 37 1016.0
20260831191620 36 278 0.0 1.6 0.00 0.00 0.00 36 1015.8
20260831191116 37 258 1.6 1.6 0.00 0.00 0.00 35 1015.9
20260831190610 37 185 1.6 1.6 0.00 0.00 0.00 36 1016.0
20260831190109 37 198 0.0 0.0 0.00 0.00 0.00 36 1016.1
20260831185604 37 193 1.6 1.6 0.00 0.00 0.00 37 1016.0
20260831185100 37 196 1.6 1.6 0.00 0.00 0.00 37 1016.1
20260831184559 36 225 1.6 3.2 0.00 0.00 0.00 38 1016.0
20260831184055 36 185 1.6 3.2 0.00 0.00 0.00 39 1016.4
20260831183554 37 235 0.0 1.6 0.00 0.00 0.00 38 1016.3
20260831183048 37 207 0.0 0.0 0.00 0.00 0.00 38 1016.3
20260831182542 37 33 0.0 0.0 0.00 0.00 0.00 38 1016.1
20260831182038 37 230 0.0 1.6 0.00 0.00 0.00 38 1016.5
20260831181532 37 221 0.0 0.0 0.00 0.00 0.00 37 1016.6
20260831181032 37 188 0.0 0.0 0.00 0.00 0.00 37 1016.8
20260831180527 37 184 1.6 3.2 0.00 0.00 0.00 38 1016.8
20260831180022 37 218 0.0 0.0 0.00 0.00 0.00 39 1017.0
20260831175517 37 236 1.6 1.6 0.00 0.00 0.00 38 1017.0
20260831175014 37 200 0.0 0.0 0.00 0.00 0.00 40 1017.1
20260831174509 37 193 0.0 0.0 0.00 0.00 0.00 39 1017.2
20260831174008 36 159 3.2 3.2 0.00 0.00 0.00 39 1017.3
20260831173506 36 207 1.6 1.6 0.00 0.00 0.00 41 1017.2
20260831173003 36 212 0.0 1.6 0.00 0.00 0.00 40 1017.3
20260831172458 36 196 0.0 1.6 0.00 0.00 0.00 41 1017.3
20260831171953 36 150 1.6 3.2 0.00 0.00 0.00 41 1017.4
20260831171448 36 197 0.0 0.0 0.00 0.00 0.00 41 1017.6
20260831170946 36 202 0.0 0.0 0.00 0.00 0.00 42 1017.7
20260831170441 36 192 0.0 0.0 0.00 0.00 0.00 41 1017.6
20260831165938 36 198 0.0 0.0 0.00 0.00 0.00 41 1017.8
20260831165428 36 194 0.0 0.0 0.00 0.00 0.00 42 1017.6
20260831164924 36 183 1.6 1.6 0.00 0.00 0.00 42 1017.8
20260831164420 35 210 0.0 0.0 0.00 0.00 0.00 44 1017.9
20260831163915 35 198 0.0 0.0 0.00 0.00 0.00 44 1017.8
20260831163411 35 209 0.0 0.0 0.00 0.00 0.00 44 1017.7
20260831162909 35 184 0.0 0.0 0.00 0.00 0.00 45 1017.8
20260831162405 35 180 0.0 0.0 0.00 0.00 0.00 45 1017.8
20260831161903 35 193 0.0 0.0 0.00 0.00 0.00 46 1017.8
20260831161400 34 197 0.0 1.6 0.00 0.00 0.00 47 1017.8
20260831160855 35 219 1.6 1.6 0.00 0.00 0.00 47 1017.8
20260831160350 34 202 0.0 0.0 0.00 0.00 0.00 47 1018.0
20260831155844 33 189 0.0 1.6 0.00 0.00 0.00 49 1017.9
20260831155338 33 206 0.0 0.0 0.00 0.00 0.00 50 1017.9
20260831154834 33 211 0.0 0.0 0.00 0.00 0.00 50 1017.8
20260831154330 32 215 0.0 0.0 0.00 0.00 0.00 51 1017.9
20260831153829 32 192 0.0 0.0 0.00 0.00 0.00 53 1018.0
20260831153325 32 190 0.0 0.0 0.00 0.00 0.00 54 1018.0
20260831152821 31 193 0.0 0.0 0.00 0.00 0.00 57 1017.9
20260831152316 31 194 0.0 0.0 0.00 0.00 0.00 57 1017.8
20260831151811 31 191 0.0 0.0 0.00 0.00 0.00 59 1017.7
20260831151310 31 187 0.0 0.0 0.00 0.00 0.00 59 1017.8
20260831150806 31 189 0.0 0.0 0.00 0.00 0.00 59 1017.8
20260831150301 30 208 0.0 0.0 0.00 0.00 0.00 61 1017.7
20260831145800 30 191 0.0 0.0 0.00 0.00 0.00 63 1017.8
20260831145256 30 197 0.0 0.0 0.00 0.00 0.00 63 1017.9
20260831144752 30 186 0.0 0.0 0.00 0.00 0.00 65 1017.7
20260831144248 29 188 0.0 0.0 0.00 0.00 0.00 64 1017.5
20260831143748 30 189 0.0 0.0 0.00 0.00 0.00 66 1017.8
20260831143243 29 228 0.0 0.0 0.00 0.00 0.00 66 1017.8
20260831142738 28 197 0.0 0.0 0.00 0.00 0.00 68 1017.7
20260831142234 28 199 0.0 0.0 0.00 0.00 0.00 68 1017.6
20260831141733 28 204 0.0 0.0 0.00 0.00 0.00 69 1017.9
20260831141228 28 189 0.0 0.0 0.00 0.00 0.00 69 1017.6
20260831140728 28 203 0.0 0.0 0.00 0.00 0.00 70 1017.7
20260831140222 28 209 0.0 0.0 0.00 0.00 0.00 70 1017.6
20260831135720 28 195 0.0 0.0 0.00 0.00 0.00 70 1017.6
20260831135216 28 212 0.0 0.0 0.00 0.00 0.00 71 1017.8
20260831134712 27 210 0.0 0.0 0.00 0.00 0.00 71 1017.6
20260831134208 27 184 0.0 0.0 0.00 0.00 0.00 71 1017.4
20260831133706 27 186 0.0 0.0 0.00 0.00 0.00 72 1017.4
20260831133201 27 197 0.0 0.0 0.00 0.00 0.00 73 1017.3
20260831132657 27 203 0.0 0.0 0.00 0.00 0.00 73 1017.2
20260831132156 27 194 0.0 0.0 0.00 0.00 0.00 73 1017.1
20260831131651 27 203 0.0 0.0 0.00 0.00 0.00 74 1017.1
20260831131148 26 190 0.0 0.0 0.00 0.00 0.00 74 1017.1
20260831130643 26 191 0.0 0.0 0.00 0.00 0.00 74 1017.1
20260831130138 26 191 0.0 0.0 0.00 0.00 0.00 75 1017.0
20260831125636 26 179 0.0 0.0 0.00 0.00 0.00 75 1016.9
20260831125132 26 201 0.0 0.0 0.00 0.00 0.00 75 1016.9
20260831124628 26 196 0.0 0.0 0.00 0.00 0.00 75 1016.9
20260831124124 26 196 0.0 0.0 0.00 0.00 0.00 75 1016.7
20260831123623 25 196 0.0 0.0 0.00 0.00 0.00 75 1016.7
20260831123123 25 196 0.0 0.0 0.00 0.00 0.00 75 1016.7
20260831122622 25 201 0.0 0.0 0.00 0.00 0.00 75 1016.5
20260831122118 25 204 0.0 0.0 0.00 0.00 0.00 75 1016.3
20260831121617 25 203 0.0 0.0 0.00 0.00 0.00 75 1016.3
20260831121114 25 203 0.0 0.0 0.00 0.00 0.00 75 1016.1
20260831120609 25 204 0.0 0.0 0.00 0.00 0.00 75 1016.4
20260831120104 26 198 0.0 0.0 0.00 0.00 0.00 75 1016.0
20260831115600 26 202 0.0 0.0 0.00 0.00 0.00 75 1015.8
20260831115056 26 202 0.0 0.0 0.00 0.00 0.00 75 1015.9
20260831114554 26 201 0.0 0.0 0.00 0.00 0.00 74 1015.8
20260831114049 26 201 0.0 0.0 0.00 0.00 0.00 74 1015.8
20260831113548 26 195 0.0 0.0 0.00 0.00 0.00 74 1015.9
20260831113045 26 196 0.0 0.0 0.00 0.00 0.00 74 1015.8
20260831112543 26 196 0.0 0.0 0.00 0.00 0.00 74 1015.5
20260831112039 26 196 0.0 0.0 0.00 0.00 0.00 73 1015.6
20260831111535 26 196 0.0 0.0 0.00 0.00 0.00 73 1015.5
20260831111030 26 196 0.0 0.0 0.00 0.00 0.00 73 1015.4
20260831110525 26 196 0.0 0.0 0.00 0.00 0.00 72 1015.2
20260831110020 26 196 0.0 0.0 0.00 0.00 0.00 72 1015.3
20260831105514 26 196 0.0 0.0 0.00 0.00 0.00 72 1015.5
20260831105009 26 195 0.0 0.0 0.00 0.00 0.00 72 1015.6
20260831104505 26 195 0.0 0.0 0.00 0.00 0.00 71 1015.4
20260831104001 26 195 0.0 0.0 0.00 0.00 0.00 71 1015.5
20260831103500 26 195 0.0 0.0 0.00 0.00 0.00 71 1015.5
20260831102957 26 193 0.0 0.0 0.00 0.00 0.00 70 1015.4
20260831102456 26 191 0.0 0.0 0.00 0.00 0.00 70 1015.4
20260831101952 26 194 0.0 0.0 0.00 0.00 0.00 69 1015.4
20260831101447 26 193 0.0 0.0 0.00 0.00 0.00 69 1015.4
20260831100943 26 197 0.0 0.0 0.00 0.00 0.00 69 1015.5
20260831100439 26 199 0.0 0.0 0.00 0.00 0.00 69 1015.3
20260831095934 27 201 0.0 0.0 0.00 0.00 0.00 68 1015.3
20260831095433 27 201 0.0 0.0 0.00 0.00 0.00 68 1015.3
20260831094928 27 201 0.0 0.0 0.00 0.00 0.00 68 1015.4
20260831094424 27 193 0.0 0.0 0.00 0.00 0.00 68 1015.3
20260831093920 27 196 0.0 0.0 0.00 0.00 0.00 68 1015.3
20260831093414 27 194 0.0 0.0 0.00 0.00 0.00 67 1015.4
20260831092911 27 193 0.0 0.0 0.00 0.00 0.00 67 1015.1